Weather in Gorynka

Ukraine / Ternopil District     49°59′16″N   25°46′16″E
temp.,
°C
wind,
m/s
gust,
m/s
humid.,
%
clouds,
%
prec.,
mm/h
press.,
hPa
HPBL,
m
28 february, sun
sun2823:00+2nw71289100 0.1 1027776
02:00+1nw71288100 0.2 1028749
05:000nw71194100 0.0 1029638
08:00−1nw61093100 0.1 1030607
11:000wnw71088100 0.0 1030579
14:00+3wnw7117486 0.0 1028766
17:00+3wnw71373100 0.0 1026833
20:00+3wnw81587100 0.3 1025825
1 march, mon
mon123:00+2nw71397100 2.4 1024729
02:00+2nnw61197100 3.7 1026619
05:00+1n6119699 0.1 1028709
08:00+1n489795 0.3 1031526
11:00+2n3678100 0.1 1032738
14:00+4nnw457489 0.1 1034810
17:00+3nw367887 0.1 1033494
20:00+2wnw358371 0.1 1034136
2 march, tue
tue223:000w369045 0.0 1034127
02:00+1w4118861 0.0 1034294
05:00+1w5129433 0.0 1032331
08:00+1w7149349 0.0 1031393
11:00+5wnw813775 0.0 1030647
14:00+8wnw913683 0.0 1028866
17:00+7wnw814700 0.0 1027793
20:00+5nw715790 0.0 1028574
3 march, wed
wed323:00+3nw612900 0.0 1030385
02:00+2wnw599512 0.0 1030225
05:00+1wnw489745 0.0 1030199
08:00+1nw469855 0.0 1031256
11:00+3nw3588100 0.0 1031348
14:00+7nw346976 0.0 1029656
17:00+7nw23720 0.0 1028390
20:00+4wsw11841 0.0 102722
4 march, thu
thu423:00+3ssw23879 0.0 102623
02:00+2sw34894 0.0 102479
05:00+1sw47901 0.0 1022118
08:00+2wsw48840 0.0 1020181
11:00+7wsw696641 0.0 1018655
14:00+10w696036 0.0 10151070
17:00+9w496347 0.0 1013672
20:00+5wsw477732 0.0 1012143